Weather History for Madison, SD

Change the Weather History Date:

Monday, February 18, 2013

  Actual Average Record
Temperature  
Mean Temperature 19 °F -  
Max Temperature 33 °F 30 °F 39 °F (2012)
Min Temperature 5 °F 11 °F 5 °F (2013)
Degree Days  
Heating Degree Days 46    
Moisture  
Dew Point 18 °F    
Average Humidity 99    
Maximum Humidity 100    
Minimum Humidity 92    
Precipitation  
Precipitation 1.28 in - - ()
Sea Level Pressure  
Sea Level Pressure 29.78 in    
Wind  
Wind Speed 23 mph (NW)    
Max Wind Speed 40 mph    
Max Gust Speed 50 mph    
Visibility 9 miles    
Events Rain , Snow    
Averages and records for this station are not official NWS values.
T = Trace of Precipitation, MM = Missing Value Source: NWS Daily Summary

Daily Weather History Graph

Daily Weather History Graph

Search for Another Location

Airport:

Trip Planner

Search our weather history database for the weather conditions in past years. The results will help you decide how hot, cold, wet, or windy it might be!

Date:

Astronomy

Feb. 18, 2013 Rise Set
Actual Time 7:22 AM CST 6:02 PM CST
Civil Twilight 6:53 AM CST 6:31 PM CST
Nautical Twilight 6:19 AM CST 7:05 PM CST
Astronomical Twilight 5:46 AM CST 7:39 PM CST
Moon 11:43 AM CST (2/18) 2:09 AM CST (2/18)
Length of Visible Light 11h 38m
Length of Day
10h 39m
First Quarter, 58% of the Moon is Illuminated
Feb 18
First Quarter
Feb 25
Full
Mar 4
Last Quarter
Mar 11
New
Mar 19
First Quarter

Hourly Weather History & Observations

Time (CST) Temp. Windchill Dew Point Humidity Pressure Visibility Wind Dir Wind Speed Gust Speed Precip Events Conditions
12:00 AM 32.0 °F 21.6 °F 32.0 °F 100% 29.56 in 10.0 mi WNW 15.0 mph 21.9 mph N/A   Clear
12:20 AM 32.0 °F 22.5 °F 32.0 °F 100% 29.56 in 10.0 mi NW 12.7 mph - N/A   Partly Cloudy
12:40 AM 32.0 °F 22.5 °F 32.0 °F 100% 29.56 in 10.0 mi WNW 12.7 mph - N/A   Scattered Clouds
1:00 AM 32.0 °F 23.0 °F 32.0 °F 100% 29.56 in 10.0 mi NW 11.5 mph - N/A   Partly Cloudy
1:20 AM 32.0 °F 23.0 °F 32.0 °F 100% 29.57 in 10.0 mi WNW 11.5 mph 17.3 mph N/A   Clear
1:40 AM 32.0 °F 20.8 °F 32.0 °F 100% 29.57 in 10.0 mi WNW 17.3 mph 24.2 mph N/A   Partly Cloudy
2:00 AM 32.0 °F 20.5 °F 32.0 °F 100% 29.58 in 10.0 mi WNW 18.4 mph 21.9 mph N/A   Mostly Cloudy
2:20 AM 32.0 °F 21.6 °F 32.0 °F 100% 29.59 in 10.0 mi WNW 15.0 mph - N/A   Overcast
2:40 AM 32.0 °F 22.1 °F 32.0 °F 100% 29.59 in 10.0 mi West 13.8 mph 18.4 mph N/A   Overcast
3:00 AM 32.0 °F 21.2 °F 32.0 °F 100% 29.60 in 10.0 mi West 16.1 mph 20.7 mph N/A   Mostly Cloudy
3:20 AM 32.0 °F 20.1 °F 32.0 °F 100% 29.60 in 10.0 mi WNW 19.6 mph 23.0 mph N/A   Overcast
3:40 AM 32.0 °F 20.8 °F 32.0 °F 100% 29.59 in 10.0 mi WNW 17.3 mph 23.0 mph N/A   Overcast
4:00 AM 33.8 °F 21.6 °F 33.8 °F 100% 29.59 in 10.0 mi WNW 23.0 mph 28.8 mph N/A   Overcast
4:20 AM 32.0 °F 20.5 °F 32.0 °F 100% 29.58 in 10.0 mi NW 18.4 mph 26.5 mph N/A   Overcast
5:00 AM 32.0 °F 19.5 °F 32.0 °F 100% 29.58 in 10.0 mi NW 21.9 mph 28.8 mph N/A   Overcast
5:20 AM 32.0 °F 19.5 °F 32.0 °F 100% 29.58 in 10.0 mi NW 21.9 mph 31.1 mph N/A   Overcast
5:40 AM 32.0 °F 18.4 °F 32.0 °F 100% 29.59 in 10.0 mi NW 26.5 mph 31.1 mph N/A   Overcast
6:00 AM 32.0 °F 18.1 °F 32.0 °F 100% 29.59 in 10.0 mi NW 27.6 mph 40.3 mph N/A   Overcast
6:20 AM 30.2 °F 14.3 °F 30.2 °F 100% 29.61 in 10.0 mi NW 34.5 mph 44.9 mph N/A   Overcast
6:40 AM 26.6 °F 10.3 °F 26.6 °F 100% 29.63 in 10.0 mi NW 29.9 mph 43.7 mph N/A Rain Light Freezing Rain
7:20 AM 21.2 °F 3.0 °F 21.2 °F 100% 29.67 in 10.0 mi NNW 29.9 mph 41.4 mph N/A   Partly Cloudy
7:40 AM 21.2 °F 2.2 °F 21.2 °F 100% 29.69 in 10.0 mi NNW 33.4 mph 42.6 mph N/A   Scattered Clouds
8:00 AM 21.2 °F 2.4 °F 21.2 °F 100% 29.70 in 10.0 mi NNW 32.2 mph 44.9 mph N/A Snow Light Snow
8:20 AM 19.4 °F -0.6 °F 19.4 °F 100% 29.71 in 10.0 mi NNW 34.5 mph 44.9 mph N/A   Mostly Cloudy
8:40 AM 19.4 °F 0.2 °F 19.4 °F 100% 29.73 in 10.0 mi NNW 31.1 mph 38.0 mph N/A   Mostly Cloudy
9:00 AM 19.4 °F -0.6 °F 19.4 °F 100% 29.73 in 9.0 mi NNW 34.5 mph 40.3 mph N/A Snow Light Snow
9:20 AM 17.6 °F -3.1 °F 17.6 °F 100% 29.73 in 9.0 mi NNW 34.5 mph 43.7 mph N/A Snow Light Snow
9:40 AM 19.4 °F -0.8 °F 19.4 °F 100% 29.74 in 8.0 mi NNW 35.7 mph 42.6 mph 0.03 in Snow Light Snow
10:00 AM 17.6 °F -2.5 °F 17.6 °F 100% 29.74 in 10.0 mi NNW 32.2 mph 41.4 mph 0.07 in Snow Light Snow
10:20 AM 17.6 °F -3.1 °F 17.6 °F 100% 29.75 in 10.0 mi NNW 34.5 mph 41.4 mph 0.04 in Snow Light Snow
10:40 AM 17.6 °F -2.8 °F 17.6 °F 100% 29.76 in 9.0 mi NW 33.4 mph 42.6 mph 0.06 in Snow Light Snow
11:00 AM 17.6 °F -2.8 °F 17.6 °F 100% 29.77 in 10.0 mi NW 33.4 mph 41.4 mph 0.07 in Snow Light Snow
11:20 AM 17.6 °F -4.3 °F 15.8 °F 93% 29.78 in 10.0 mi NW 40.3 mph 49.5 mph 0.04 in Snow Light Snow
11:40 AM 17.6 °F -3.6 °F 15.8 °F 93% 29.80 in 10.0 mi NNW 36.8 mph 43.7 mph 0.04 in Rain Light Freezing Rain
12:00 PM 17.6 °F -2.2 °F 15.8 °F 93% 29.80 in 9.0 mi NNW 31.1 mph 46.0 mph 0.08 in Snow Light Snow
12:20 PM 17.6 °F -2.8 °F 15.8 °F 93% 29.81 in 10.0 mi NW 33.4 mph 42.6 mph 0.03 in Snow Light Snow
12:40 PM 15.8 °F -5.5 °F 14.0 °F 93% 29.82 in 10.0 mi NNW 34.5 mph 47.2 mph 0.03 in Snow Light Snow
1:00 PM 15.8 °F -5.2 °F 15.8 °F 100% 29.82 in 8.0 mi NNW 33.4 mph 41.4 mph 0.09 in Snow Light Snow
1:20 PM 17.6 °F -1.0 °F 17.6 °F 100% 29.82 in 8.0 mi NNW 26.5 mph 33.4 mph 0.05 in Snow Light Snow
1:40 PM 17.6 °F -3.6 °F 15.8 °F 93% 29.83 in 10.0 mi NNW 36.8 mph 43.7 mph 0.24 in Snow Light Snow
2:00 PM 17.6 °F -1.0 °F 15.8 °F 93% 29.83 in 10.0 mi NW 26.5 mph 35.7 mph 0.26 in Snow Light Snow
2:20 PM 15.8 °F -4.1 °F 15.8 °F 100% 29.84 in 3.0 mi NNW 28.8 mph 38.0 mph 0.08 in Snow Light Snow
2:40 PM 15.8 °F -3.7 °F 15.8 °F 100% 29.84 in 5.0 mi NW 27.6 mph 34.5 mph 0.13 in Snow Light Snow
3:00 PM 15.8 °F -4.7 °F 14.0 °F 93% 29.85 in 10.0 mi NNW 31.1 mph 39.1 mph 0.20 in Snow Light Snow
3:20 PM 15.8 °F -5.0 °F 15.8 °F 100% 29.86 in 4.0 mi NNW 32.2 mph 39.1 mph 0.01 in Snow Light Snow
3:40 PM 14.0 °F -6.8 °F 14.0 °F 100% 29.87 in 4.0 mi NNW 29.9 mph 39.1 mph 0.04 in Snow Light Snow
4:00 PM 12.2 °F -9.9 °F 12.2 °F 100% 29.88 in 1.0 mi NNW 32.2 mph 39.1 mph 0.14 in Snow Light Snow
4:20 PM 12.2 °F -8.2 °F 12.2 °F 100% 29.89 in 2.5 mi NNW 26.5 mph 34.5 mph 0.03 in Snow Light Snow
4:40 PM 12.2 °F -9.6 °F 12.2 °F 100% 29.89 in 3.0 mi NNW 31.1 mph 42.6 mph 0.08 in Snow Light Snow
5:00 PM 12.2 °F -9.6 °F 12.2 °F 100% 29.90 in 10.0 mi NNW 31.1 mph 36.8 mph 0.09 in Snow Light Snow
5:20 PM 10.4 °F -12.0 °F 10.4 °F 100% 29.91 in 2.0 mi NNW 31.1 mph 41.4 mph 0.07 in Snow Light Snow
5:40 PM 10.4 °F -11.0 °F 10.4 °F 100% 29.92 in 10.0 mi NNW 27.6 mph 36.8 mph 0.08 in Rain Light Freezing Rain
6:00 PM 10.4 °F -11.0 °F 8.6 °F 92% 29.93 in 10.0 mi NNW 27.6 mph 38.0 mph 0.08 in Rain Light Freezing Rain
6:20 PM 10.4 °F -11.4 °F 10.4 °F 100% 29.94 in 10.0 mi NNW 28.8 mph 38.0 mph N/A Snow Light Snow
6:40 PM 8.6 °F -12.7 °F 8.6 °F 100% 29.94 in 8.0 mi NNW 25.3 mph 32.2 mph 0.01 in Snow Light Snow
7:00 PM 8.6 °F -14.5 °F 6.8 °F 92% 29.95 in 10.0 mi NNW 31.1 mph 36.8 mph 0.01 in   Overcast
7:20 PM 8.6 °F -13.8 °F 6.8 °F 92% 29.95 in 10.0 mi NNW 28.8 mph 39.1 mph N/A   Overcast
7:40 PM 6.8 °F -16.2 °F 6.8 °F 100% 29.95 in 10.0 mi NNW 28.8 mph 34.5 mph N/A Snow Light Snow
8:00 PM 6.8 °F -15.1 °F 6.8 °F 100% 29.95 in 10.0 mi NNW 25.3 mph 36.8 mph N/A   Overcast
8:20 PM 6.8 °F -15.5 °F 6.8 °F 100% 29.96 in 10.0 mi NNW 26.5 mph 33.4 mph N/A   Overcast
8:40 PM 6.8 °F -15.9 °F 6.8 °F 100% 29.96 in 9.0 mi NNW 27.6 mph 36.8 mph N/A Snow Light Snow
9:00 PM 6.8 °F -16.2 °F 6.8 °F 100% 29.97 in 3.0 mi NNW 28.8 mph 35.7 mph N/A Snow Light Snow
9:20 PM 6.8 °F -16.2 °F 6.8 °F 100% 29.97 in 7.0 mi NNW 28.8 mph 35.7 mph N/A Snow Light Snow
9:40 PM 6.8 °F -15.1 °F 6.8 °F 100% 29.98 in 8.0 mi NW 25.3 mph 36.8 mph N/A Snow Light Snow
10:00 PM 6.8 °F -15.9 °F 6.8 °F 100% 29.98 in 9.0 mi NNW 27.6 mph 36.8 mph 0.01 in Rain Light Freezing Rain
10:20 PM 6.8 °F -14.7 °F 6.8 °F 100% 29.99 in 10.0 mi NW 24.2 mph 33.4 mph N/A   Overcast
10:40 PM 5.0 °F -18.3 °F 5.0 °F 100% 30.00 in 10.0 mi NW 27.6 mph 31.1 mph N/A   Overcast
11:00 PM 5.0 °F -17.1 °F 5.0 °F 100% 30.01 in 10.0 mi NW 24.2 mph 33.4 mph N/A   Overcast
11:20 PM 6.8 °F -13.8 °F 6.8 °F 100% 30.01 in 10.0 mi NW 21.9 mph 32.2 mph N/A   Overcast
11:40 PM 6.8 °F -15.9 °F 6.8 °F 100% 30.02 in 10.0 mi NNW 27.6 mph 33.4 mph N/A Snow Light Snow